Regional Weather Roundup
Issued by NWS Midland/Odessa, TX

Skip options and go directly to product.
Home | Oldest Version | Previous Version | Current Version | All | Text Only | Save Text | Print | Product List | Glossary On

Skip product version selection by date and time.   
036
ASUS44 KMAF 210410
RWRMAF
MIDLAND AREA WEATHER ROUNDUP
NATIONAL WEATHER SERVICE MIDLAND TX
1100 PM CDT WED AUG 20 2014

...IN SOUTHWEST TEXAS AND SOUTHEAST NEW MEXICO...

CITY           SKY/WX    TMP DP  RH WIND       PRES   REMARKS
ALPINE         CLOUDY    71  63  76 SW9       30.15R
ANDREWS        FAIR      78  62  57 S7        30.00R
ARTESIA        MOCLDY    79  63  57 W8        29.95R
BIG SPRING     CLOUDY    85  60  43 SE15      30.00R
CARLSBAD       PTCLDY    84  59  42 S13       29.93R
DRYDEN           N/A     83  67  58 W6        29.95R
FORT STOCKTON  CLOUDY    77  64  64 S13       30.00R
GUAD PASS      CLEAR     75  52  44 SW10      30.13R
HOBBS          PTCLDY    77  59  53 S21       30.00R
MARFA          CLOUDY    70  63  78 SE5       30.14R
MIDLAND AIRPK  NOT AVBL
MIDLAND INTL   CLOUDY    79  68  69 S12       29.98R
ODESSA         CLOUDY    78  65  63 S8        29.99R
PECOS          CLOUDY    81  63  55 SE12      29.93R
PRESIDIO       FAIR      77  66  67 MISG      29.99R
SEMINOLE       CLOUDY    78  61  55 S12       30.01R
SNYDER         MOCLDY    78  64  62 E3        29.99F
WINK           MOCLDY    82  63  52 SE15      29.95R
$$
...OTHER STATIONS IN TEXAS...

CITY           SKY/WX    TMP DP  RH WIND       PRES   REMARKS
ABILENE        CLEAR     84  60  44 S9        29.97R
AMARILLO       PTCLDY    82  61  48 S20       29.97R
AUSTIN         PTCLDY    84  72  67 S12       29.99R
BROWNSVILLE    CLEAR     84  79  85 SE14      29.99R
CORPUS CHRISTI PTCLDY    84  78  82 SE20G26   29.97R
DALLAS FTW     CLEAR     86  70  58 S15G25    29.94R
DEL RIO        CLEAR     89  63  41 E9        29.87R
EL PASO        PTCLDY    85  44  23 W14       29.99R
HOUSTON INT    PTCLDY    83  77  82 S8        30.02R
LUBBOCK        CLOUDY    77  61  57 S17G28    29.99R
SAN ANGELO     CLEAR     80  63  55 SE5       29.96S
SAN ANTONIO    PTCLDY    85  70  60 SE21G35   29.98R
WACO           CLEAR     84  71  65 SE17G28   29.96R
WICHITA FALLS  NOT AVBL
$$
...OTHER LOCATIONS IN NEW MEXICO...

CITY           SKY/WX    TMP DP  RH WIND       PRES   REMARKS
ALAMAGORDO     PTCLDY    77  50  38 E5        29.99R
ALBUQUERQUE    CLEAR     79  42  26 NW5       30.06R
CANNON AFB     PTCLDY    74  59  59 S9        30.01R
CLOVIS           N/A     73  59  60 SE14      30.02R
HOLLOMAN AFB   PTCLDY    81  51  35 SE6       29.97R
ROSWELL        PTCLDY    82  59  45 SW12      29.94R
RUIDOSO        PTCLDY    63  55  77 SW7       30.20S
SANTA FE       CLEAR     68  41  37 CALM      30.11R
TRUTH OR CONSE CLEAR     78  47  33 NW9       30.02R
TUCUMCARI      CLEAR     82  54  37 S15       29.93R
$$

USA.gov is the U.S. government's official web portal to all federal, state and local government web resources and services.